• Join FlightAware (Why Join?)
  • Login
  • US Flag 
01:13AM EST


 

Airport Tracker/Info


-or-


 

Live Flight TrackerFlight Track Log ✈ DAL3688 ✈ 15-Apr-2013 ✈ KDTW - KMDT

Flight Track Log - Related Links

Times and Time Zones

All times are in EDT time to prevent confusion due to time zone crossing. See the DAL3688 flight status page for this flight to view local times or setup timezone preferences in your user account.

Time Position Orientation Groundspeed Altitude Reporting Facility
EDT Latitude Longitude Course Direction KTS MPH feet Rate Location/Type
10:34AM 42.2036 -83.3556 172° South 141 162 1,300  Level Cleveland Center
10:34AM 42.1900 -83.3531 172° South 143 165 2,200 1,647 Climbing FAA TRACON SMA TRACON (SMA)
10:35AM 42.1719 -83.3503 173° South 174 200 2,700 2,250 Climbing FAA TRACON SMA TRACON (SMA)
10:35AM 42.1547 -83.3469 172° South 176 203 3,700 2,250 Climbing FAA TRACON SMA TRACON (SMA)
10:35AM 42.1411 -83.3447 173° South 180 207 4,200 1,800 Climbing FAA TRACON SMA TRACON (SMA)
10:36AM 42.1219 -83.3428 176° South 204 235 4,900 2,000 Climbing FAA TRACON SMA TRACON (SMA)
10:36AM 42.1056 -83.3417 177° South 224 258 5,500 2,154 Climbing FAA TRACON SMA TRACON (SMA)
10:36AM 42.0836 -83.3383 174° South 233 268 6,300 3,000 Climbing FAA TRACON SMA TRACON (SMA)
10:37AM 42.0656 -83.3125 133° Southeast 250 288 7,500 3,000 Climbing FAA TRACON SMA TRACON (SMA)
10:37AM 42.0636 -83.2819 95° East 283 326 8,300 2,850 Climbing FAA TRACON SMA TRACON (SMA)
10:37AM 42.0711 -83.2425 76° East 295 339 9,400 2,550 Climbing FAA TRACON SMA TRACON (SMA)
10:38AM 42.0775 -83.2103 75° East 290 334 10,000 1,050 Climbing FAA TRACON SMA TRACON (SMA)
10:38AM 42.0842 -83.1761 75° East 310 357 10,100 300 Climbing FAA TRACON SMA TRACON (SMA)
10:38AM 42.0928 -83.1319 75° East 338 389 10,200 1,200 Climbing FAA TRACON SMA TRACON (SMA)
10:39AM 42.1006 -83.0889 76° East 353 406 10,900 2,049 Climbing FAA TRACON SMA TRACON (SMA)
10:39AM 42.1086 -83.0492 75° East 361 415 11,600 2,100 Climbing FAA TRACON SMA TRACON (SMA)
10:39AM 42.1175 -83.0036 75° East 359 413 12,300 2,100 Climbing FAA TRACON SMA TRACON (SMA)
10:40AM 42.1264 -82.9597 75° East 359 413 13,000 1,800 Climbing FAA TRACON SMA TRACON (SMA)
10:40AM 42.1344 -82.9197 75° East 361 415 13,500 1,650 Climbing FAA TRACON SMA TRACON (SMA)
10:40AM 42.1439 -82.8689 76° East 364 419 14,100 1,610 Climbing FAA TRACON SMA TRACON (SMA)
10:41AM 42.1517 -82.8272 76° East 369 425 14,600 1,350 Climbing FAA TRACON SMA TRACON (SMA)
10:41AM 42.1600 -82.7850 75° East 375 432 15,000 1,350 Climbing FAA TRACON SMA TRACON (SMA)
10:41AM 42.1706 -82.7308 75° East 385 443 15,500 1,350 Climbing FAA TRACON SMA TRACON (SMA)
10:42AM 42.1789 -82.6867 76° East 391 450 15,900 1,050 Climbing FAA TRACON SMA TRACON (SMA)
10:42AM 42.1875 -82.6419 75° East 400 460 16,200 1,200 Climbing FAA TRACON SMA TRACON (SMA)
10:42AM 42.1989 -82.5856 75° East 405 466 16,700 1,200 Climbing FAA TRACON SMA TRACON (SMA)
10:43AM 42.2075 -82.5400 76° East 406 467 17,000 1,077 Climbing FAA TRACON SMA TRACON (SMA)
10:43AM 42.2164 -82.4939 75° East 410 472 17,400 1,231 Climbing FAA TRACON SMA TRACON (SMA)
10:43AM 42.2231 -82.4342 81° East 418 481 17,800 1,050 Climbing FAA TRACON SMA TRACON (SMA)
10:44AM 42.2206 -82.3861 94° East 418 481 18,100 1,050 Climbing FAA TRACON SMA TRACON (SMA)
10:44AM 42.2183 -82.3378 94° East 419 482 18,500 1,200 Climbing FAA TRACON SMA TRACON (SMA)
10:44AM 42.2131 -82.2775 97° East 420 483 18,900 1,050 Climbing FAA TRACON SMA TRACON (SMA)
10:45AM 42.2108 -82.2286 93° East 424 488 19,200 900 Climbing FAA TRACON SMA TRACON (SMA)
10:45AM 42.2069 -82.1800 96° East 425 489 19,500 600 Climbing FAA TRACON SMA TRACON (SMA)
10:45AM 42.2064 -82.1678 94° East 425 489 19,600 1,075 Climbing FAA TRACON SMA TRACON (SMA)
10:46AM 42.1908 -81.9983 97° East 426 490 20,700 1,178 Climbing Cleveland Center
10:47AM 42.1258 -81.8681 124° Southeast 416 479 21,700 800 Climbing Cleveland Center
10:48AM 42.0475 -81.7714 137° Southeast 413 475 22,300 750 Climbing Cleveland Center
10:49AM 41.9547 -81.6692 141° Southeast 434 499 23,200 850 Climbing Cleveland Center
10:50AM 41.8619 -81.5617 139° Southeast 441 507 24,000 800 Climbing Cleveland Center
10:51AM 41.7669 -81.4517 139° Southeast 446 513 24,800 750 Climbing Cleveland Center
10:52AM 41.6636 -81.3364 140° Southeast 446 513 25,500 700 Climbing Cleveland Center
10:53AM 41.5706 -81.2269 139° Southeast 451 519 26,200 700 Climbing Cleveland Center
10:54AM 41.4897 -81.0986 130° Southeast 451 519 26,900 400 Climbing Cleveland Center
10:55AM 41.4300 -80.9431 117° Southeast 453 521 27,000 50 Climbing Cleveland Center
10:56AM 41.3719 -80.7906 117° Southeast 464 534 27,000  Level Cleveland Center
10:57AM 41.3094 -80.6328 118° Southeast 482 555 27,000  Level Cleveland Center
10:58AM 41.2450 -80.4728 118° Southeast 482 555 27,000  Level Cleveland Center
10:59AM 41.1842 -80.3128 117° Southeast 476 548 27,000  Level Cleveland Center
11:00AM 41.1211 -80.1558 118° Southeast 476 548 27,000  Level Cleveland Center
11:01AM 41.0581 -79.9967 118° Southeast 476 548 27,000  Level Cleveland Center
11:02AM 40.9925 -79.8378 119° Southeast 476 548 27,000  Level Cleveland Center
11:03AM 40.9308 -79.6817 118° Southeast 476 548 27,000  Level Cleveland Center
11:04AM 40.8669 -79.5206 118° Southeast 481 554 27,000  Level Cleveland Center
11:05AM 40.8008 -79.3653 119° Southeast 481 554 27,000  Level Cleveland Center
11:06AM 40.7364 -79.2047 118° Southeast 481 554 27,000  Level Cleveland Center
11:07AM 40.6697 -79.0475 119° Southeast 481 554 27,000  Level Cleveland Center
11:08AM 40.6028 -78.8850 118° Southeast 492 566 27,000  Level Cleveland Center
11:09AM 40.5442 -78.7253 116° Southeast 492 566 27,000 -1,000 Level Cleveland Center
11:10AM 40.5158 -78.5456 102° East 492 566 25,000 -2,331 Descending Cleveland Center
11:11AM 40.4881 -78.3392 100° East 486 559 21,600 -2,633 Descending New York Center
11:12AM 40.4667 -78.1811 100° East 459 528 18,900 -2,380 Descending New York Center
11:13AM 40.4444 -78.0342 101° East 432 497 16,800 -2,115 Descending New York Center
11:14AM 40.4256 -77.9011 101° East 397 457 14,600 -2,168 Descending New York Center
11:15AM 40.4081 -77.7739 100° East 370 426 12,500 -2,067 Descending New York Center
11:16AM 40.3867 -77.6436 102° East 340 391 10,500 -1,537 Descending New York Center
11:17AM 40.3753 -77.5525 99° East 297 342 9,400 -1,537 Descending New York Center
11:18AM 40.3581 -77.4500 102° East 267 307 7,400 -1,785 Descending New York Center
11:19AM 40.3481 -77.3672 99° East 261 300 5,800 -1,190 Descending New York Center
11:20AM 40.3308 -77.2650 102° East 261 300 5,000 -605 Descending New York Center
11:21AM 40.3167 -77.1792 102° East 261 300 4,600 -814 Descending New York Center
11:22AM 40.3033 -77.0800 100° East 261 300 3,400 -793 Descending New York Center
11:23AM 40.2825 -77.0019 109° East 251 289 3,000 -198 Descending New York Center
11:24AM 40.2572 -76.9289 114° Southeast 208 239 3,000  Level New York Center
11:25AM 40.2378 -76.8619 111° Southeast 208 239 3,000  Level New York Center
11:30AM 40.1932 -76.7626 108° East  Level Estimated